• Em Portugal
  • Lista de países
  • Para 7 dias
  • Temperatura da água
  • Mapas de satélite
  • Mapa do tempo
  • Widgets de tempo
  • user-avatar
    Iniciar Sessão

    Previsão horária em Wagadugu

    Hoje, 19 Agosto, Sábado

    Tempo Temperatura Precipitação Vento Pressão Humidade
    00:00 +26°C° 0 mm 1 m/s 731 mmHg 79%
    01:00 +26°C° 0 mm 2 m/s 731 mmHg 79%
    02:00 +26°C° 0 mm 2 m/s 731 mmHg 79%
    03:00 +26°C° 0 mm 2 m/s 731 mmHg 79%
    04:00 +26°C° 0,2 mm 3 m/s 731 mmHg 80%
    05:00 +26°C° 0,2 mm 3 m/s 732 mmHg 81%
    06:00 +25°C° 0,2 mm 3 m/s 732 mmHg 82%
    07:00 +25°C° 0,7 mm 3 m/s 732 mmHg 82%
    08:00 +26°C° 0,7 mm 3 m/s 733 mmHg 82%
    09:00 +26°C° 0,7 mm 4 m/s 733 mmHg 82%
    10:00 +27°C° 0,4 mm 4 m/s 733 mmHg 77%
    11:00 +28°C° 0,4 mm 4 m/s 733 mmHg 72%
    12:00 +29°C° 0,4 mm 4 m/s 733 mmHg 68%
    13:00 +30°C° 0,3 mm 4 m/s 732 mmHg 64%
    14:00 +32°C° 0,3 mm 4 m/s 732 mmHg 61%
    15:00 +33°C° 0,3 mm 4 m/s 731 mmHg 58%
    16:00 +31°C° 0,9 mm 3 m/s 731 mmHg 61%
    17:00 +31°C° 0,9 mm 3 m/s 731 mmHg 65%
    18:00 +30°C° 0,9 mm 3 m/s 732 mmHg 68%
    19:00 +29°C° 0,1 mm 3 m/s 732 mmHg 71%
    20:00 +29°C° 0,1 mm 3 m/s 732 mmHg 73%
    21:00 +28°C° 0,1 mm 2 m/s 733 mmHg 76%
    22:00 +28°C° 0 mm 2 m/s 733 mmHg 76%
    23:00 +28°C° 0 mm 2 m/s 733 mmHg 77%

    Amanhã, 20 Agosto, Domingo

    Tempo Temperatura Precipitação Vento Pressão Humidade
    00:00 +27°C° 0 mm 2 m/s 733 mmHg 78%
    01:00 +27°C° 0 mm 2 m/s 733 mmHg 79%
    02:00 +27°C° 0 mm 3 m/s 733 mmHg 80%
    03:00 +26°C° 0 mm 3 m/s 732 mmHg 81%
    04:00 +26°C° 0,2 mm 3 m/s 733 mmHg 82%
    05:00 +26°C° 0,2 mm 3 m/s 733 mmHg 83%
    06:00 +25°C° 0,2 mm 3 m/s 733 mmHg 85%
    07:00 +27°C° 0,8 mm 4 m/s 734 mmHg 80%
    08:00 +28°C° 0,8 mm 5 m/s 735 mmHg 75%
    09:00 +29°C° 0,8 mm 6 m/s 735 mmHg 71%
    10:00 +30°C° 0,4 mm 6 m/s 735 mmHg 66%
    11:00 +33°C° 0,4 mm 5 m/s 735 mmHg 61%
    12:00 +34°C° 0,4 mm 5 m/s 734 mmHg 56%
    13:00 +34°C° 0,9 mm 5 m/s 734 mmHg 56%
    14:00 +34°C° 0,9 mm 5 m/s 733 mmHg 56%
    15:00 +34°C° 0,9 mm 4 m/s 732 mmHg 56%
    16:00 +33°C° 1,1 mm 4 m/s 732 mmHg 60%
    17:00 +31°C° 1,1 mm 3 m/s 733 mmHg 64%
    18:00 +30°C° 1,1 mm 2 m/s 733 mmHg 68%
    19:00 +30°C° 0 mm 2 m/s 733 mmHg 70%
    20:00 +29°C° 0 mm 2 m/s 734 mmHg 73%
    21:00 +28°C° 0 mm 2 m/s 734 mmHg 75%
    22:00 +28°C° 0 mm 2 m/s 734 mmHg 76%
    23:00 +28°C° 0 mm 2 m/s 734 mmHg 76%

    Depois de amanhã, 21 Agosto, Segunda-feira

    Tempo Temperatura Precipitação Vento Pressão Humidade
    00:00 +28°C° 0 mm 1 m/s 734 mmHg 77%
    01:00 +28°C° 0 mm 2 m/s 733 mmHg 78%
    02:00 +27°C° 0 mm 2 m/s 733 mmHg 80%
    03:00 +27°C° 0 mm 2 m/s 733 mmHg 81%
    04:00 +27°C° 0 mm 2 m/s 733 mmHg 83%
    05:00 +26°C° 0 mm 3 m/s 733 mmHg 84%
    06:00 +26°C° 0 mm 3 m/s 733 mmHg 86%
    07:00 +27°C° 0 mm 4 m/s 733 mmHg 79%
    08:00 +29°C° 0 mm 4 m/s 734 mmHg 73%
    09:00 +30°C° 0 mm 5 m/s 735 mmHg 67%
    10:00 +32°C° 0,2 mm 5 m/s 734 mmHg 62%
    11:00 +34°C° 0,2 mm 5 m/s 734 mmHg 58%
    12:00 +35°C° 0,2 mm 4 m/s 734 mmHg 54%
    13:00 +35°C° 0,5 mm 4 m/s 733 mmHg 54%
    14:00 +35°C° 0,5 mm 4 m/s 732 mmHg 53%
    15:00 +35°C° 0,5 mm 4 m/s 731 mmHg 53%
    16:00 +34°C° 0,2 mm 3 m/s 731 mmHg 57%
    17:00 +33°C° 0,2 mm 3 m/s 731 mmHg 60%
    18:00 +31°C° 0,2 mm 3 m/s 732 mmHg 64%
    19:00 +31°C° 0,4 mm 3 m/s 732 mmHg 68%
    20:00 +30°C° 0,4 mm 3 m/s 732 mmHg 72%
    21:00 +29°C° 0,4 mm 4 m/s 733 mmHg 76%
    22:00 +28°C° 0,4 mm 4 m/s 733 mmHg 77%
    23:00 +28°C° 0,4 mm 4 m/s 733 mmHg 78%

    22 Agosto, Terça-feira

    Tempo Temperatura Precipitação Vento Pressão Humidade
    00:00 +28°C° 0,4 mm 4 m/s 732 mmHg 80%
    01:00 +27°C° 0 mm 4 m/s 732 mmHg 81%
    02:00 +27°C° 0 mm 3 m/s 732 mmHg 83%
    03:00 +26°C° 0 mm 3 m/s 732 mmHg 84%
    04:00 +26°C° 1,2 mm 3 m/s 732 mmHg 85%
    05:00 +26°C° 1,2 mm 3 m/s 733 mmHg 86%
    06:00 +26°C° 1,2 mm 3 m/s 733 mmHg 86%
    07:00 +27°C° 0,1 mm 4 m/s 733 mmHg 84%
    08:00 +27°C° 0,1 mm 4 m/s 734 mmHg 81%
    09:00 +28°C° 0,1 mm 5 m/s 734 mmHg 78%
    10:00 +29°C° 1,4 mm 5 m/s 734 mmHg 74%
    11:00 +30°C° 1,4 mm 5 m/s 733 mmHg 70%
    12:00 +32°C° 1,4 mm 6 m/s 733 mmHg 66%
    13:00 +32°C° 0,1 mm 6 m/s 732 mmHg 66%
    14:00 +32°C° 0,1 mm 6 m/s 732 mmHg 65%
    15:00 +32°C° 0,1 mm 6 m/s 731 mmHg 65%
    16:00 +30°C° 0 mm 5 m/s 731 mmHg 68%
    17:00 +30°C° 0 mm 4 m/s 731 mmHg 70%
    18:00 +29°C° 0 mm 4 m/s 731 mmHg 73%
    19:00 +28°C° 0 mm 4 m/s 732 mmHg 76%
    20:00 +27°C° 0 mm 3 m/s 732 mmHg 80%
    21:00 +27°C° 0 mm 3 m/s 733 mmHg 83%
    22:00 +26°C° 0 mm 3 m/s 733 mmHg 84%
    23:00 +26°C° 0 mm 3 m/s 733 mmHg 85%

    23 Agosto, Quarta-feira

    Tempo Temperatura Precipitação Vento Pressão Humidade
    00:00 +26°C° 0 mm 4 m/s 732 mmHg 86%
    01:00 +26°C° 0,2 mm 3 m/s 732 mmHg 86%
    02:00 +25°C° 0,2 mm 3 m/s 732 mmHg 87%
    03:00 +25°C° 0,2 mm 3 m/s 732 mmHg 88%
    04:00 +25°C° 0,1 mm 3 m/s 732 mmHg 88%
    05:00 +25°C° 0,1 mm 2 m/s 732 mmHg 88%
    06:00 +25°C° 0,1 mm 2 m/s 733 mmHg 89%
    07:00 +26°C° 0 mm 3 m/s 733 mmHg 84%
    08:00 +27°C° 0 mm 3 m/s 733 mmHg 80%
    09:00 +28°C° 0 mm 4 m/s 734 mmHg 75%
    10:00 +29°C° 0 mm 4 m/s 733 mmHg 69%
    11:00 +30°C° 0 mm 4 m/s 733 mmHg 63%
    12:00 +33°C° 0 mm 4 m/s 733 mmHg 58%
    13:00 +33°C° 0 mm 4 m/s 732 mmHg 57%
    14:00 +33°C° 0 mm 4 m/s 731 mmHg 56%
    15:00 +34°C° 0 mm 3 m/s 731 mmHg 55%
    16:00 +33°C° 0 mm 3 m/s 731 mmHg 58%
    17:00 +31°C° 0 mm 3 m/s 731 mmHg 61%
    18:00 +31°C° 0 mm 2 m/s 731 mmHg 64%
    19:00 +30°C° 0,2 mm 3 m/s 732 mmHg 67%
    20:00 +29°C° 0,2 mm 3 m/s 732 mmHg 70%
    21:00 +28°C° 0,2 mm 3 m/s 732 mmHg 74%
    22:00 +28°C° 2 mm 3 m/s 732 mmHg 77%
    23:00 +27°C° 2 mm 3 m/s 732 mmHg 80%

    24 Agosto, Quinta-feira

    Tempo Temperatura Precipitação Vento Pressão Humidade
    00:00 +27°C° 2 mm 2 m/s 732 mmHg 83%
    01:00 +27°C° 1,3 mm 2 m/s 732 mmHg 82%
    02:00 +27°C° 1,3 mm 2 m/s 732 mmHg 82%
    03:00 +27°C° 1,3 mm 2 m/s 731 mmHg 82%
    04:00 +27°C° 1 mm 3 m/s 732 mmHg 82%
    05:00 +26°C° 1 mm 3 m/s 732 mmHg 83%
    06:00 +26°C° 1 mm 3 m/s 733 mmHg 83%
    07:00 +27°C° 1,2 mm 3 m/s 733 mmHg 80%
    08:00 +27°C° 1,2 mm 3 m/s 733 mmHg 78%
    09:00 +28°C° 1,2 mm 3 m/s 734 mmHg 75%
    10:00 +28°C° 0,9 mm 2 m/s 733 mmHg 72%
    11:00 +29°C° 0,9 mm 2 m/s 733 mmHg 70%
    12:00 +29°C° 0,9 mm 2 m/s 733 mmHg 67%
    13:00 +29°C° 0,9 mm 2 m/s 732 mmHg 68%
    14:00 +29°C° 0,9 mm 3 m/s 732 mmHg 69%
    15:00 +29°C° 0,9 mm 3 m/s 732 mmHg 69%
    16:00 +29°C° 0,2 mm 3 m/s 732 mmHg 73%
    17:00 +28°C° 0,2 mm 3 m/s 732 mmHg 77%
    18:00 +27°C° 0,2 mm 3 m/s 732 mmHg 81%
    19:00 +27°C° 0 mm 3 m/s 732 mmHg 82%
    20:00 +26°C° 0 mm 3 m/s 733 mmHg 84%
    21:00 +26°C° 0 mm 2 m/s 733 mmHg 85%
    22:00 +26°C° 0 mm 2 m/s 733 mmHg 85%
    23:00 +25°C° 0 mm 2 m/s 733 mmHg 86%
    Mostrar mais